When you browse on this site, cookies collect data to enhance your experience and personalize the content and advertising you see.
Visit our Privacy Policy to learn more. By continuing to use the site, you agree to this use of cookies and data.

Previsão horária em Lisboa

Hoje, 11 Julho, Sábado

Tempo Temperatura Precipitação Vento Pressão Humidade
00:00 +18°C° 0 mm 3 m/s 755 mmHg 78%
01:00 +18°C° 0 mm 3 m/s 755 mmHg 80%
02:00 +18°C° 0 mm 3 m/s 754 mmHg 81%
03:00 +18°C° 0 mm 2 m/s 754 mmHg 81%
04:00 +18°C° 0 mm 2 m/s 755 mmHg 81%
05:00 +19°C° 0 mm 2 m/s 755 mmHg 82%
06:00 +21°C° 0 mm 2 m/s 755 mmHg 71%
07:00 +25°C° 0 mm 2 m/s 755 mmHg 60%
08:00 +28°C° 0 mm 2 m/s 755 mmHg 48%
09:00 +30°C° 0 mm 2 m/s 755 mmHg 42%
10:00 +34°C° 0 mm 3 m/s 755 mmHg 36%
11:00 +36°C° 0 mm 3 m/s 755 mmHg 30%
12:00 +36°C° 0 mm 4 m/s 755 mmHg 30%
13:00 +36°C° 0 mm 4 m/s 754 mmHg 30%
14:00 +36°C° 0 mm 5 m/s 754 mmHg 29%
15:00 +34°C° 0.1 mm 5 m/s 754 mmHg 35%
16:00 +32°C° 0.1 mm 6 m/s 754 mmHg 41%
17:00 +29°C° 0.1 mm 6 m/s 754 mmHg 47%
18:00 +27°C° 0.2 mm 5 m/s 754 mmHg 56%
19:00 +25°C° 0.2 mm 3 m/s 755 mmHg 65%
20:00 +21°C° 0.2 mm 2 m/s 755 mmHg 74%
21:00 +21°C° 0 mm 2 m/s 755 mmHg 76%
22:00 +20°C° 0 mm 2 m/s 755 mmHg 77%
23:00 +20°C° 0 mm 2 m/s 755 mmHg 78%

Amanhã, 12 Julho, Domingo

Tempo Temperatura Precipitação Vento Pressão Humidade
00:00 +20°C° 0 mm 2 m/s 755 mmHg 79%
01:00 +20°C° 0 mm 2 m/s 755 mmHg 80%
02:00 +19°C° 0 mm 2 m/s 754 mmHg 81%
03:00 +19°C° 0 mm 2 m/s 755 mmHg 81%
04:00 +20°C° 0 mm 1 m/s 755 mmHg 81%
05:00 +20°C° 0 mm 1 m/s 755 mmHg 81%
06:00 +23°C° 0 mm 1 m/s 756 mmHg 71%
07:00 +25°C° 0 mm 1 m/s 756 mmHg 62%
08:00 +28°C° 0 mm 1 m/s 756 mmHg 52%
09:00 +30°C° 0 mm 1 m/s 756 mmHg 45%
10:00 +32°C° 0 mm 2 m/s 757 mmHg 39%
11:00 +35°C° 0 mm 2 m/s 757 mmHg 32%
12:00 +35°C° 0 mm 3 m/s 756 mmHg 32%
13:00 +36°C° 0 mm 3 m/s 756 mmHg 31%
14:00 +36°C° 0 mm 3 m/s 756 mmHg 31%
15:00 +34°C° 0 mm 4 m/s 756 mmHg 36%
16:00 +33°C° 0 mm 4 m/s 756 mmHg 40%
17:00 +30°C° 0 mm 4 m/s 756 mmHg 45%
18:00 +28°C° 0 mm 4 m/s 756 mmHg 52%
19:00 +26°C° 0 mm 4 m/s 757 mmHg 58%
20:00 +24°C° 0 mm 3 m/s 757 mmHg 65%
21:00 +24°C° 0 mm 3 m/s 757 mmHg 65%
22:00 +24°C° 0 mm 2 m/s 757 mmHg 66%
23:00 +23°C° 0 mm 2 m/s 757 mmHg 67%

Depois de amanhã, 13 Julho, Segunda-feira

Tempo Temperatura Precipitação Vento Pressão Humidade
00:00 +23°C° 0 mm 2 m/s 757 mmHg 69%
01:00 +23°C° 0 mm 2 m/s 757 mmHg 70%
02:00 +21°C° 0 mm 2 m/s 757 mmHg 71%
03:00 +21°C° 0 mm 2 m/s 757 mmHg 71%
04:00 +21°C° 0 mm 2 m/s 757 mmHg 71%
05:00 +21°C° 0 mm 2 m/s 757 mmHg 71%
06:00 +25°C° 0 mm 2 m/s 757 mmHg 62%
07:00 +28°C° 0 mm 2 m/s 758 mmHg 53%
08:00 +31°C° 0 mm 2 m/s 758 mmHg 43%
09:00 +34°C° 0 mm 2 m/s 758 mmHg 39%
10:00 +36°C° 0 mm 3 m/s 758 mmHg 35%
11:00 +38°C° 0 mm 3 m/s 758 mmHg 31%
12:00 +38°C° 0 mm 4 m/s 757 mmHg 31%
13:00 +39°C° 0 mm 5 m/s 757 mmHg 31%
14:00 +39°C° 0 mm 6 m/s 757 mmHg 31%
15:00 +36°C° 0 mm 7 m/s 756 mmHg 35%
16:00 +34°C° 0 mm 7 m/s 756 mmHg 40%
17:00 +32°C° 0 mm 7 m/s 756 mmHg 44%
18:00 +29°C° 0 mm 7 m/s 756 mmHg 51%
19:00 +27°C° 0 mm 6 m/s 757 mmHg 57%
20:00 +23°C° 0 mm 6 m/s 757 mmHg 63%
21:00 +23°C° 0 mm 5 m/s 757 mmHg 65%
22:00 +22°C° 0 mm 5 m/s 757 mmHg 67%
23:00 +21°C° 0 mm 5 m/s 757 mmHg 69%

14 Julho, Terça-feira

Tempo Temperatura Precipitação Vento Pressão Humidade
00:00 +21°C° 0 mm 4 m/s 756 mmHg 70%
01:00 +20°C° 0 mm 4 m/s 756 mmHg 71%
02:00 +20°C° 0 mm 4 m/s 756 mmHg 72%
03:00 +20°C° 0 mm 4 m/s 756 mmHg 72%
04:00 +19°C° 0 mm 4 m/s 756 mmHg 73%
05:00 +19°C° 0 mm 4 m/s 756 mmHg 73%
06:00 +22°C° 0 mm 4 m/s 756 mmHg 65%
07:00 +25°C° 0 mm 4 m/s 756 mmHg 57%
08:00 +28°C° 0 mm 4 m/s 756 mmHg 49%
09:00 +30°C° 0 mm 5 m/s 756 mmHg 44%
10:00 +33°C° 0 mm 5 m/s 756 mmHg 38%
11:00 +35°C° 0 mm 5 m/s 756 mmHg 33%
12:00 +36°C° 0 mm 6 m/s 755 mmHg 32%
13:00 +36°C° 0 mm 7 m/s 755 mmHg 31%
14:00 +36°C° 0 mm 7 m/s 755 mmHg 30%
15:00 +34°C° 0 mm 8 m/s 755 mmHg 33%
16:00 +33°C° 0 mm 8 m/s 754 mmHg 36%
17:00 +31°C° 0 mm 8 m/s 754 mmHg 39%
18:00 +28°C° 0 mm 7 m/s 754 mmHg 44%
19:00 +26°C° 0 mm 6 m/s 755 mmHg 49%
20:00 +23°C° 0 mm 6 m/s 755 mmHg 54%
21:00 +22°C° 0 mm 5 m/s 755 mmHg 56%
22:00 +22°C° 0 mm 4 m/s 755 mmHg 59%
23:00 +21°C° 0 mm 4 m/s 755 mmHg 61%

15 Julho, Quarta-feira

Tempo Temperatura Precipitação Vento Pressão Humidade
00:00 +22°C° 0 mm 4 m/s 754 mmHg 58%
01:00 +22°C° 0 mm 4 m/s 754 mmHg 56%
02:00 +22°C° 0 mm 4 m/s 754 mmHg 53%
03:00 +23°C° 0 mm 4 m/s 754 mmHg 47%
04:00 +23°C° 0 mm 4 m/s 754 mmHg 42%
05:00 +25°C° 0 mm 4 m/s 754 mmHg 36%
06:00 +27°C° 0 mm 4 m/s 754 mmHg 34%
07:00 +29°C° 0 mm 4 m/s 755 mmHg 31%
08:00 +33°C° 0 mm 4 m/s 755 mmHg 29%
09:00 +35°C° 0 mm 4 m/s 755 mmHg 27%
10:00 +37°C° 0 mm 4 m/s 755 mmHg 25%
11:00 +39°C° 0 mm 3 m/s 755 mmHg 22%
12:00 +41°C° 0 mm 4 m/s 755 mmHg 21%
13:00 +42°C° 0 mm 4 m/s 755 mmHg 20%
14:00 +42°C° 0 mm 4 m/s 754 mmHg 19%
15:00 +41°C° 0 mm 5 m/s 754 mmHg 21%
16:00 +40°C° 0 mm 6 m/s 754 mmHg 22%
17:00 +38°C° 0 mm 7 m/s 754 mmHg 24%
18:00 +35°C° 0 mm 6 m/s 755 mmHg 27%
19:00 +32°C° 0 mm 5 m/s 755 mmHg 31%
20:00 +29°C° 0 mm 4 m/s 755 mmHg 34%
21:00 +29°C° 0 mm 4 m/s 755 mmHg 36%
22:00 +28°C° 0 mm 3 m/s 755 mmHg 37%
23:00 +28°C° 0 mm 3 m/s 756 mmHg 38%

16 Julho, Quinta-feira

Tempo Temperatura Precipitação Vento Pressão Humidade
00:00 +27°C° 0 mm 2 m/s 755 mmHg 40%
01:00 +27°C° 0 mm 2 m/s 755 mmHg 41%
02:00 +26°C° 0 mm 1 m/s 755 mmHg 43%
03:00 +26°C° 0 mm 2 m/s 755 mmHg 44%
04:00 +25°C° 0 mm 2 m/s 755 mmHg 45%
05:00 +25°C° 0 mm 2 m/s 755 mmHg 46%
06:00 +27°C° 0 mm 2 m/s 756 mmHg 44%
07:00 +29°C° 0 mm 3 m/s 756 mmHg 42%
08:00 +31°C° 0 mm 3 m/s 756 mmHg 41%
09:00 +34°C° 0 mm 3 m/s 756 mmHg 37%
10:00 +37°C° 0 mm 2 m/s 756 mmHg 33%
11:00 +39°C° 0 mm 2 m/s 756 mmHg 29%
12:00 +39°C° 0 mm 3 m/s 756 mmHg 28%
13:00 +41°C° 0 mm 4 m/s 756 mmHg 27%
14:00 +41°C° 0 mm 4 m/s 755 mmHg 27%
15:00 +39°C° 0 mm 5 m/s 755 mmHg 30%
16:00 +36°C° 0 mm 5 m/s 755 mmHg 33%
17:00 +35°C° 0 mm 6 m/s 755 mmHg 37%
18:00 +33°C° 0 mm 5 m/s 755 mmHg 40%
19:00 +30°C° 0 mm 4 m/s 756 mmHg 44%
20:00 +28°C° 0 mm 3 m/s 756 mmHg 47%
21:00 +28°C° 0 mm 2 m/s 756 mmHg 46%
22:00 +27°C° 0 mm 2 m/s 755 mmHg 45%
23:00 +27°C° 0 mm 2 m/s 755 mmHg 44%
Mostrar mais